CW8914 Weather Reports


time (UTC)temp
F
wind
direction
speed
knots
gust
knots
rain 1hr
in
rain 24hr
in
rain mn
in
humidity
%
barometer
mb
20260906231648 67 274 2.6 7.0 0.00 0.00 0.00 39 1019.6
20260906230630 67 284 3.5 7.0 0.00 0.00 0.00 39 1019.7
20260906225635 67 306 3.5 8.7 0.00 0.00 0.00 38 1019.6
20260906224622 68 264 4.3 8.7 0.00 0.00 0.00 37 1019.7
20260906223626 68 292 4.3 10.4 0.00 0.00 0.00 36 1019.7
20260906222629 68 312 1.7 9.6 0.00 0.00 0.00 35 1019.8
20260906221633 68 279 5.2 10.4 0.00 0.00 0.00 34 1019.9
20260906220621 68 288 6.1 9.6 0.00 0.00 0.00 34 1020.1
20260906215627 68 267 6.1 9.6 0.00 0.00 0.00 33 1020.0
20260906214651 68 178 3.5 9.6 0.00 0.00 0.00 32 1020.2
20260906213632 68 294 4.3 10.4 0.00 0.00 0.00 34 1020.0
20260906212635 68 282 5.2 12.2 0.00 0.00 0.00 33 1020.0
20260906211621 68 285 4.3 9.6 0.00 0.00 0.00 33 1020.2
20260906210626 69 315 5.2 8.7 0.00 0.00 0.00 32 1020.2
20260906205632 68 232 4.3 8.7 0.00 0.00 0.00 32 1020.5
20260906204635 68 252 3.5 11.3 0.00 0.00 0.00 31 1020.5
20260906203623 70 252 5.2 10.4 0.00 0.00 0.00 29 1020.5
20260906202625 70 294 4.3 10.4 0.00 0.00 0.00 29 1020.5
20260906201629 69 233 7.0 11.3 0.00 0.00 0.00 29 1020.6
20260906200633 68 294 5.2 12.2 0.00 0.00 0.00 29 1020.7
20260906195638 69 238 7.0 16.5 0.00 0.00 0.00 28 1021.0
20260906194625 69 300 6.1 12.2 0.00 0.00 0.00 26 1020.8
20260906193629 69 226 1.7 12.2 0.00 0.00 0.00 26 1020.8
20260906192633 70 185 0.9 10.4 0.00 0.00 0.00 27 1020.8
20260906191634 69 267 1.7 10.4 0.00 0.00 0.00 26 1021.1
20260906190621 69 261 0.9 8.7 0.00 0.00 0.00 26 1020.8
20260906185628 69 254 5.2 9.6 0.00 0.00 0.00 26 1021.2
20260906184631 68 236 4.3 8.7 0.00 0.00 0.00 28 1021.2
20260906183634 69 202 3.5 13.0 0.00 0.00 0.00 27 1021.4
20260906182617 68 180 4.3 11.3 0.00 0.00 0.00 27 1021.5
20260906181624 67 206 6.1 11.3 0.00 0.00 0.00 28 1021.9
20260906180644 68 221 7.0 13.0 0.00 0.00 0.00 27 1021.9
20260906175632 68 103 1.7 5.2 0.00 0.00 0.00 31 1021.8
20260906174635 67 211 8.7 14.8 0.00 0.00 0.00 31 1022.3
20260906173617 66 244 4.3 11.3 0.00 0.00 0.00 31 1022.3
20260906172620 66 171 2.6 10.4 0.00 0.00 0.00 32 1022.4
20260906171626 66 231 1.7 7.8 0.00 0.00 0.00 32 1022.3
20260906170631 66 253 5.2 8.7 0.00 0.00 0.00 33 1022.4
20260906165617 65 205 2.6 7.0 0.00 0.00 0.00 33 1022.4
20260906164620 64 194 3.5 7.8 0.00 0.00 0.00 34 1022.5
20260906163627 64 224 4.3 10.4 0.00 0.00 0.00 35 1022.6
20260906162630 64 167 5.2 11.3 0.00 0.00 0.00 34 1022.7
20260906161633 64 245 5.2 8.7 0.00 0.00 0.00 34 1022.6
20260906160617 64 185 4.3 8.7 0.00 0.00 0.00 34 1022.6
20260906155642 63 192 3.5 9.6 0.00 0.00 0.00 34 1022.6
20260906154627 63 174 3.5 7.0 0.00 0.00 0.00 35 1022.6
20260906153630 62 173 3.5 8.7 0.00 0.00 0.00 36 1022.6
20260906152632 61 181 2.6 9.6 0.00 0.00 0.00 37 1022.7
20260906151656 58 178 5.2 12.2 0.00 0.00 0.00 41 1022.6
20260906150624 52 32 1.7 3.5 0.00 0.00 0.00 54 1022.5
20260906145630 49 207 0.9 2.6 0.00 0.00 0.00 57 1022.6
20260906144631 47 204 0.9 3.5 0.00 0.00 0.00 61 1022.6
20260906143634 45 144 0.0 2.6 0.00 0.00 0.00 62 1022.7
20260906142616 44 140 0.0 2.6 0.00 0.00 0.00 64 1022.7
20260906141644 42 140 0.9 1.7 0.00 0.00 0.00 66 1022.6
20260906140626 41 140 0.0 2.6 0.00 0.00 0.00 66 1022.7
20260906135650 41 140 0.0 1.7 0.00 0.00 0.00 66 1022.6
20260906134654 41 140 0.0 0.9 0.00 0.00 0.00 64 1022.5
20260906133634 41 140 0.0 1.7 0.00 0.00 0.00 63 1022.4
20260906132622 40 140 0.9 1.7 0.00 0.00 0.00 64 1022.4
20260906131623 40 140 0.0 1.7 0.00 0.00 0.00 64 1022.2
20260906130625 40 140 0.0 0.9 0.00 0.00 0.00 64 1022.3
20260906125630 41 140 0.0 0.9 0.00 0.00 0.00 61 1022.2
20260906124634 41 140 0.0 0.0 0.00 0.00 0.00 61 1022.2
20260906123622 42 140 0.0 0.0 0.00 0.00 0.00 60 1022.2
20260906122645 42 140 0.0 0.9 0.00 0.00 0.00 59 1022.2
20260906121647 43 140 0.0 0.9 0.00 0.00 0.00 57 1022.3
20260906120623 43 140 0.0 0.9 0.00 0.00 0.00 56 1022.2
20260906115626 43 140 0.0 0.9 0.00 0.00 0.00 55 1022.3
20260906114630 43 140 0.9 1.7 0.00 0.00 0.00 55 1022.3
20260906113617 43 140 0.0 0.9 0.00 0.00 0.00 56 1022.3
20260906112618 43 140 0.0 0.9 0.00 0.00 0.00 56 1022.2
20260906111621 43 140 0.0 1.7 0.00 0.00 0.00 55 1022.2
20260906110625 43 140 0.0 1.7 0.00 0.00 0.00 55 1022.4
20260906105630 43 140 0.9 1.7 0.00 0.00 0.00 56 1022.4
20260906104618 44 140 0.0 1.7 0.00 0.00 0.00 56 1022.3
20260906103619 44 140 0.9 1.7 0.00 0.00 0.00 54 1022.2
20260906102621 44 140 0.9 2.6 0.00 0.00 0.00 53 1022.2
20260906101625 44 140 1.7 2.6 0.00 0.00 0.00 54 1022.2
20260906100633 44 140 0.9 1.7 0.00 0.00 0.00 56 1022.2
20260906095617 44 140 0.9 1.7 0.00 0.00 0.00 55 1022.1
20260906094621 44 140 0.9 1.7 0.00 0.00 0.00 56 1022.1
20260906093624 43 140 0.9 1.7 0.00 0.00 0.00 57 1021.9
20260906092632 43 140 0.9 1.7 0.00 0.00 0.00 58 1021.9
20260906091635 43 140 0.9 2.6 0.00 0.00 0.00 59 1022.0
20260906090618 43 140 0.0 0.0 0.00 0.00 0.00 60 1022.0
20260906085626 43 140 0.0 0.0 0.00 0.00 0.00 60 1022.0
20260906084629 43 140 0.0 0.0 0.00 0.00 0.00 59 1022.0
20260906083635 44 140 0.0 0.0 0.00 0.00 0.00 58 1022.0
20260906082641 44 140 0.0 0.0 0.00 0.00 0.00 57 1022.1
20260906081623 44 140 0.0 0.0 0.00 0.00 0.00 57 1022.2
20260906080626 45 140 0.0 0.0 0.00 0.00 0.00 56 1022.2
20260906075652 45 140 0.0 0.9 0.00 0.00 0.00 55 1022.2
20260906074635 46 140 0.0 1.7 0.00 0.00 0.00 55 1022.3
20260906073618 46 140 0.0 0.9 0.00 0.00 0.00 53 1022.2
20260906072642 47 140 0.0 0.9 0.00 0.00 0.00 52 1022.2
20260906071625 47 140 0.0 0.9 0.00 0.00 0.00 53 1022.2
20260906070654 47 140 0.0 2.6 0.00 0.00 0.00 51 1022.2
20260906065617 47 140 0.0 0.9 0.00 0.00 0.00 50 1022.3
20260906064620 48 140 0.9 0.9 0.00 0.00 0.00 50 1022.2
20260906063624 48 140 0.0 0.0 0.00 0.00 0.00 50 1022.2
20260906062630 48 140 0.9 1.7 0.00 0.00 0.00 50 1022.2
20260906061636 48 140 0.0 1.7 0.00 0.00 0.00 49 1022.0
20260906060633 49 140 0.0 0.9 0.00 0.00 0.00 47 1022.2
20260906055639 49 140 0.9 1.7 0.00 0.00 0.00 47 1022.1
20260906054620 49 140 0.0 1.7 0.00 0.00 0.00 47 1022.2
20260906053624 50 140 0.0 0.9 0.00 0.00 0.00 47 1022.1
20260906052648 50 140 0.0 2.6 0.00 0.00 0.00 46 1022.1
20260906051633 50 140 0.9 3.5 0.00 0.00 0.00 45 1022.2
20260906050618 51 140 1.7 2.6 0.00 0.00 0.00 45 1022.2
20260906045624 51 140 0.9 2.6 0.00 0.00 0.00 45 1022.2
20260906044628 51 140 1.7 2.6 0.00 0.00 0.00 44 1022.2
20260906043635 51 215 0.9 2.6 0.00 0.00 0.00 45 1022.3
20260906042618 51 215 0.9 2.6 0.00 0.00 0.00 45 1022.4
20260906041623 51 215 0.9 1.7 0.00 0.00 0.00 45 1022.2
20260906040625 52 215 0.9 2.6 0.00 0.00 0.00 44 1022.2
20260906035630 52 216 0.0 0.9 0.00 0.00 0.00 44 1022.2
20260906034618 53 216 0.9 0.9 0.00 0.00 0.00 43 1022.2
20260906033642 54 216 0.9 1.7 0.00 0.00 0.00 41 1022.2
20260906032626 55 216 0.0 0.9 0.00 0.00 0.00 40 1022.1
20260906031629 56 216 0.0 0.9 0.00 0.00 0.00 40 1022.0
20260906030651 56 216 0.0 0.9 0.00 0.00 0.00 38 1022.0
20260906025618 58 216 0.0 0.9 0.00 0.00 0.00 36 1021.9
20260906024622 58 216 0.0 0.9 0.00 0.00 0.00 36 1021.8
20260906023644 59 216 0.0 0.9 0.00 0.00 0.00 33 1021.7
20260906022627 60 216 0.0 0.9 0.00 0.00 0.00 31 1021.6
20260906021634 62 216 0.0 0.9 0.00 0.00 0.00 30 1021.6
20260906020617 63 216 0.0 0.9 0.00 0.00 0.00 29 1021.7
20260906015623 65 216 0.0 1.7 0.00 0.00 0.00 27 1021.7
20260906014647 67 216 0.9 0.9 0.00 0.00 0.00 26 1021.7
20260906013628 68 216 0.9 3.5 0.00 0.00 0.00 24 1021.7
20260906012616 69 204 1.7 6.1 0.00 0.00 0.00 23 1021.7
20260906011618 70 248 2.6 5.2 0.00 0.00 0.00 22 1021.8
20260906010622 71 230 2.6 6.1 0.00 0.00 0.00 21 1021.8
20260906005628 71 234 0.9 7.0 0.00 0.00 0.00 21 1021.8
20260906004636 71 261 1.7 6.1 0.00 0.00 0.00 21 1021.7
20260906003618 71 207 0.9 8.7 0.00 0.00 0.00 21 1021.6
20260906002620 72 169 1.7 9.6 0.00 0.00 0.00 21 1021.5
20260906001644 72 262 4.3 7.8 0.00 0.00 0.00 21 1021.5
20260906000641 72 270 3.5 9.6 0.00 0.00 0.00 21 1021.6
20260905235627 72 268 5.2 9.6 0.00 0.00 0.00 21 1021.7
20260905234634 72 269 3.5 9.6 0.00 0.00 0.00 21 1021.5
20260905233617 72 303 6.1 12.2 0.00 0.00 0.00 22 1021.5
20260905232618 73 288 4.3 10.4 0.00 0.00 0.00 20 1021.4